SCP
0 0 0 0 0 0 0 0 0 0 0 0 0 0 0 0 0 0 0 0 0 0
0 0 0 0 0 0 0 0 0 0 0 0 0 0 0 0 0 0 0 0 0 0
0 0 0 -0 0 0 0 0 0 0 0 0 0 0 0 0 0 0 0 0 0 0
0 0 0 0 0 0 0 0 0 0 0 0 0 0 0 0 0 0 0 0 0 0
0 0 0 0 0 0 0 0 0 0 0 0 0 0 0 0 0 0 0 0 0 0
0 0 0 0 0 0 0 0 0 0 0 0 0 0 0 0 0 0 0 0 0 0
0 0 0 0 0 0 0 0 0 0 0 0 0 0 0 0 0 0 0 0 0 0
-0 0 0 -0 0 0 0 -0 0 0 0 0 0 0 0 0 0 0 0 0 0 0
-0 0 0 0 -0 -0 -0 -0 -0 -0 -0 0 0 0 -0 0 0 0 0 0 0 0
0 -0 -0 -0 0 0 0 0 0 0 -0 0 0 -0 -0 -0 0 0 0 0 0 0
0 0 0 -0 0 -0 0 0 0 0 0 0 0 -0 -0 -0 0 0 0 0 0 0
0 0 0 0 0 0 -0 0 0 0 0 0 0 0 -0 -0 -0 0 0 0 0 0
0 0 0 0 0 0 0 0 -0 0 0 0 0 0 0 0 0 0 0 0 0 0
0 0 0 0 0 0 0 0 0 -0 -0 0 0 0 0 0 0 0 0 0 0 0
Wind_Speed_500mb
30 29 33 37 46 52 62 66 68 75 83 110 114 114 112 110 105 103 102 100 96 92
33 33 36 36 42 43 49 58 62 67 73 79 107 116 115 114 112 111 107 104 101 100
47 41 37 41 44 43 45 47 52 60 66 73 81 100 116 117 116 115 114 112 111 107
47 46 45 41 42 45 47 46 48 54 60 66 76 86 100 116 121 121 119 118 119 113
52 51 49 46 46 45 48 51 50 50 57 64 71 78 91 102 118 127 126 125 124 120
53 53 52 52 50 50 52 49 49 50 54 61 68 75 86 92 102 117 127 128 130 123
51 55 58 57 53 51 49 53 54 51 51 54 63 72 79 91 99 108 114 126 131 126
60 58 60 61 61 59 53 53 54 57 58 56 60 67 74 82 91 104 112 113 124 129
72 71 65 65 69 69 65 61 59 61 58 62 63 66 67 71 81 86 102 114 119 126
71 77 79 80 73 73 75 73 70 66 64 65 65 61 65 67 76 82 89 101 110 120
72 78 81 84 86 83 80 78 77 77 73 74 73 64 59 58 68 84 90 91 97 112
76 77 81 85 91 94 94 93 87 83 82 81 81 79 66 56 65 81 93 91 94 104
86 86 86 86 89 95 98 100 102 100 90 87 89 82 78 64 65 82 89 92 97 102
101 105 103 101 96 95 100 106 107 109 107 99 91 89 84 73 69 83 87 92 98 103
Wind_Direction_500mb
328 315 300 295 290 286 282 279 274 265 255 244 240 239 240 240 240 238 236 233 233 234
343 325 312 301 292 288 288 285 279 274 266 255 246 243 241 240 239 238 237 236 236 236
355 346 328 313 302 293 287 284 283 277 270 265 255 248 245 244 241 239 237 235 235 234
347 347 347 335 318 306 292 285 278 276 271 266 263 258 250 245 244 241 239 237 236 236
345 342 341 342 340 327 311 300 290 276 270 267 262 261 260 254 247 245 242 240 238 236
339 339 338 336 334 337 332 319 301 288 278 272 268 264 262 260 257 252 248 245 243 239
336 335 335 335 329 323 326 328 325 313 293 278 273 269 264 263 260 257 254 250 248 245
333 331 329 330 330 329 322 311 315 319 318 302 284 273 270 266 263 260 258 254 252 248
322 324 327 325 323 325 326 324 314 299 305 306 306 291 276 272 268 264 259 257 254 251
317 318 320 322 323 322 322 322 322 315 303 296 296 298 290 274 271 265 260 259 255 254
306 307 310 313 315 317 318 319 319 315 313 304 296 294 294 278 266 265 262 258 259 256
298 297 298 301 304 308 311 312 313 314 312 308 302 296 289 279 269 262 260 258 256 255
297 295 295 294 295 298 300 303 306 306 307 306 299 297 290 280 268 264 261 258 255 253
296 296 295 293 291 292 292 295 296 298 298 300 299 295 290 282 266 262 257 249 250 252
Wind_Speed_850mb
30 29 33 37 46 52 62 66 68 75 83 110 114 114 112 110 105 103 102 100 96 92
33 33 36 36 42 43 49 58 62 67 73 79 107 116 115 114 112 111 107 104 101 100
47 41 37 41 44 43 45 47 52 60 66 73 81 100 116 117 116 115 114 112 111 107
47 46 45 41 42 45 47 46 48 54 60 66 76 86 100 116 121 121 119 118 119 113
52 51 49 46 46 45 48 51 50 50 57 64 71 78 91 102 118 127 126 125 124 120
53 53 52 52 50 50 52 49 49 50 54 61 68 75 86 92 102 117 127 128 130 123
51 55 58 57 53 51 49 53 54 51 51 54 63 72 79 91 99 108 114 126 131 126
60 58 60 61 61 59 53 53 54 57 58 56 60 67 74 82 91 104 112 113 124 129
72 71 65 65 69 69 65 61 59 61 58 62 63 66 67 71 81 86 102 114 119 126
71 77 79 80 73 73 75 73 70 66 64 65 65 61 65 67 76 82 89 101 110 120
72 78 81 84 86 83 80 78 77 77 73 74 73 64 59 58 68 84 90 91 97 112
76 77 81 85 91 94 94 93 87 83 82 81 81 79 66 56 65 81 93 91 94 104
86 86 86 86 89 95 98 100 102 100 90 87 89 82 78 64 65 82 89 92 97 102
101 105 103 101 96 95 100 106 107 109 107 99 91 89 84 73 69 83 87 92 98 103
Wind_Direction_850mb
328 315 300 295 290 286 282 279 274 265 255 244 240 239 240 240 240 238 236 233 233 234
343 325 312 301 292 288 288 285 279 274 266 255 246 243 241 240 239 238 237 236 236 236
355 346 328 313 302 293 287 284 283 277 270 265 255 248 245 244 241 239 237 235 235 234
347 347 347 335 318 306 292 285 278 276 271 266 263 258 250 245 244 241 239 237 236 236
345 342 341 342 340 327 311 300 290 276 270 267 262 261 260 254 247 245 242 240 238 236
339 339 338 336 334 337 332 319 301 288 278 272 268 264 262 260 257 252 248 245 243 239
336 335 335 335 329 323 326 328 325 313 293 278 273 269 264 263 260 257 254 250 248 245
333 331 329 330 330 329 322 311 315 319 318 302 284 273 270 266 263 260 258 254 252 248
322 324 327 325 323 325 326 324 314 299 305 306 306 291 276 272 268 264 259 257 254 251
317 318 320 322 323 322 322 322 322 315 303 296 296 298 290 274 271 265 260 259 255 254
306 307 310 313 315 317 318 319 319 315 313 304 296 294 294 278 266 265 262 258 259 256
298 297 298 301 304 308 311 312 313 314 312 308 302 296 289 279 269 262 260 258 256 255
297 295 295 294 295 298 300 303 306 306 307 306 299 297 290 280 268 264 261 258 255 253
296 296 295 293 291 292 292 295 296 298 298 300 299 295 290 282 266 262 257 249 250 252